Location: Plumfield
(37.8914°N, 89.0067°W)
Time: 13:25:56
(UTC+00:00)

Daily predictions for brighter satellites

Satellite Brightness Start Highest point End
(mag) Time Altitude Azimuth Time Altitude Azimuth Time Altitude Azimuth
ERS-2 4.1 12:01:18 10° WSW 12:02:27 11° W 12:02:52 11° W
ASTRO E2 4.3 12:01:33 10° WSW 12:04:55 27° S 12:08:17 10° SE
Cosmos 158 Rocket 3.9 12:00:52 10° NNW 12:05:42 61° WSW 12:10:36 10° S
Cosmos 2112 Rocket 4.1 12:02:17 10° NNW 12:07:41 88° ENE 12:13:01 10° SSE
Cosmos 1862 3.3 12:04:09 10° S 12:08:11 78° W 12:12:15 10° N
PAYLOAD B 4.3 12:03:51 10° NNE 12:09:24 89° ESE 12:14:53 10° SSW
Cosmos 2154 Rocket 4.1 12:03:39 10° S 12:09:50 90° SSW 12:16:08 10° N
BREEZE-M DEB (TANK) 4.2 12:05:26 10° WSW 12:10:04 82° NNW 12:19:35 10° ENE
Cosmos 1844 Rocket 2.7 12:05:23 10° SSW 12:11:00 75° WNW 12:16:42 10° NNE
SMAP 3.4 12:07:00 10° NNE 12:11:40 73° ESE 12:16:18 10° S
Cosmos 1844 3.7 12:07:08 10° SSW 12:12:41 89° ESE 12:18:17 10° NNE
CZ-4B DEB 4.2 12:07:49 10° N 12:13:14 68° WNW 12:18:39 10° SSW
Cosmos 1805 Rocket 4.0 12:11:06 10° S 12:15:28 70° E 12:19:55 10° NNE
Cosmos 1898 Rocket 3.8 12:12:13 10° SW 12:17:18 48° WNW 12:22:28 10° N
NOSS 3-4 (A) 4.4 12:14:36 10° W 12:19:22 24° NW 12:24:24 10° NNE
NOSS 3-4 (C) 4.4 12:14:41 10° W 12:19:29 25° NW 12:24:33 10° NNE
Cosmos 1867 3.9 22:57:37 10° S 23:02:48 49° ESE 23:08:02 10° NE
ADEOS Rocket 4.0 22:57:05 10° N 23:04:47 72° WNW 23:12:27 10° SSW
Cosmos 2221 3.7 23:01:17 10° SSW 23:05:28 47° W 23:09:40 10° N
Cosmos 1606 3.3 23:03:12 10° SSE 23:06:49 38° E 23:10:28 10° NNE
Cosmos 2154 Rocket 4.0 23:02:16 10° N 23:08:37 71° E 23:14:56 10° SSE
Cosmos 2298 Rocket 4.0 23:03:18 10° NNW 23:08:38 80° ENE 23:13:57 10° SSE
Cosmos 2150 Rocket 3.9 23:04:19 10° NNW 23:09:28 74° ENE 23:14:36 10° SSE
SMAP 3.1 23:08:10 10° SSE 23:12:43 59° ENE 23:17:18 10° N
Cosmos 1818 3.6 23:08:05 10° NNW 23:13:31 61° ENE 23:18:53 10° SE
CRYOSAT 2 4.4 23:09:29 10° N 23:14:22 65° E 23:19:12 10° S
Cosmos 1943 Rocket 3.8 23:13:48 10° NNE 23:16:20 13° NE 23:18:53 10° ENE
Cosmos 2341 Rocket 4.3 23:13:26 10° N 23:19:25 44° ENE 23:25:25 10° SSE
Cosmos 1125 Rocket 3.5 23:15:22 10° NNW 23:20:32 64° ENE 23:25:42 10° SSE
USA 215 3.3 23:13:59 10° NE 23:20:33 80° SE 23:27:05 10° SW
Cosmos 1500 Rocket 4.2 23:16:33 10° NNW 23:20:54 62° W 23:25:15 10° S
H-2A R/B 3.1 23:18:24 10° S 23:22:44 63° WSW 23:26:57 10° NNW
Cosmos 1782 4.4 23:21:24 10° ESE 23:23:40 15° E 23:25:18 12° ENE
SL-16 R/B 2.5 23:19:30 10° S 23:24:51 46° ESE 23:30:14 10° NE
Meteor 1-4 Rocket 4.3 23:23:25 10° ESE 23:25:27 14° E 23:26:26 13° ENE
YAOGAN 1 4.5 23:30:24 12° NE 23:30:24 12° NE 23:31:10 10° NE
ERS-2 2.2 23:28:47 10° NNE 23:32:22 53° E 23:35:57 10° S
Cosmos 1689 Rocket 3.6 23:32:45 17° ENE 23:33:24 18° E 23:35:32 10° SE
BREEZE-M DEB (TANK) 3.5 23:32:04 10° W 23:34:46 27° NW 23:36:11 13° NNE
Helios 1A Rocket 4.5 23:36:27 16° ENE 23:36:27 16° ENE 23:38:22 10° NNE
Meteor 2-12 Rocket 4.4 23:32:02 10° N 23:38:11 72° E 23:44:16 10° SSE
SL-8 Rocket 4.2 23:33:03 10° N 23:39:03 48° E 23:45:04 10° SSE
Lacrosse 5 rocket 0.9 23:39:24 10° SW 23:43:06 77° SE 23:45:31 20° NE
CZ-2D R/B 4.1 23:40:34 10° SE 23:43:47 27° ENE 23:47:01 10° NNE
Cosmos 2181 Rocket 4.1 23:37:57 10° S 23:44:15 63° E 23:50:34 10° NNE
COSMO-SKYMED 1 2.7 23:40:56 10° NNE 23:45:10 50° E 23:49:23 10° S
Okean-O 3.6 23:44:54 10° ESE 23:48:27 24° ENE 23:52:01 10° NNE
Sich 1 3.1 23:45:03 10° N 23:49:26 84° W 23:53:46 10° S
USA 267 4.1 23:47:07 18° ENE 23:50:58 31° NNE 23:56:33 10° NNW
GENESIS II 4.3 23:50:24 10° NW 23:54:20 77° WSW 23:58:10 10° SSE
